weather.gov     
National Weather Service

Terminal Aerodrome Forecast
NWS Homepage
This page is being discontinued on March 12, 2014.
The same data is available at this site. Please update your bookmarks.
Thank you, and we apologize for the inconvenience.
Please send an email to SR-SRH.Webmaster@noaa.gov with any concerns.


Current Version
Previous Version:    01  02  03  04  05  06  07  08  09  10  11  12  13  14  15  16  17  18  19  20  21  22  23  24  25  26  27  28  29  
[Printable]
164
FTUS43 KGLD 221130
TAFGLD
TAF
KGLD 221130Z 2212/2312 23009KT P6SM OVC150
     FM221400 35010KT P6SM VCSH SCT060 OVC100
     FM221900 01010KT P6SM SCT150
     FM230000 VRB05KT P6SM SKC
     FM231000 VRB05KT 4SM BR SCT005=


164
FTUS43 KGLD 221130
TAFGLD
TAF
KGLD 221130Z 2212/2312 23009KT P6SM OVC150
     FM221400 35010KT P6SM VCSH SCT060 OVC100
     FM221900 01010KT P6SM SCT150
     FM230000 VRB05KT P6SM SKC
     FM231000 VRB05KT 4SM BR SCT005=




U.S. Dept. of Commerce
NOAA National Weather Service
1325 East West Highway
Silver Spring, MD 20910
E-mail: w-nws.webmaster@noaa.gov
Page last modified: May 16, 2007
NATIONAL WEATHER SERVICE: for Safety, for Work, for Fun - FOR LIFE